Tracking 30995 objects as of 7-Jul-2025
HD Live streaming from Space Station
objects crossing your sky now

STARLINK-4740

Track STARLINK-4740 now!
10-day predictions
STARLINK-4740 is classified as:


NORAD ID: 53871
Int'l Code: 2022-114BF
Perigee: 546.1 km
Apogee: 547.7 km
Inclination: 53.2 °
Period: 95.4 minutes
Semi major axis: 6917 km
RCS: Unknown
Launch date: September 19, 2022
Source: United States (US)
Launch site: AIR FORCE EASTERN TEST RANGE (AFETR)
Your satellite tracking list
ARIANE 44LP R/B
Track 1 satellite(s)




NASA's NSSDC Master Catalog

Two Line Element Set (TLE):
1 53871U 22114BF  25187.51455087  .00000717  00000-0  63140-4 0  9995
2 53871  53.2183 288.8661 0001146  87.4436 272.6687 15.08840542156233
Source of the keplerian elements: AFSPC